[[{"header":{"parameterUnit":"m.s-1","parameterCategory":1,"la1":30.2991,"la2":30.254,"lo1":-89.0895,"lo2":-89.0444,"dy":0.0017,"dx":0.0017,"nx":28,"ny":28,"refTime":"2025-04-10T03:00:00:Z","depth":0,"parameterNumber":2,"parameterNumberName":"U-component_of_WINDS"},"data":[0,0,0,0,0,0,0,0,0,0,0,0,0,0,0,0,0,0,0,0,0,0,0,0,0,0,0,0,0,0,0,0,0,0,0,0,0,0,0,0,0,0,0,0,0,0,0,0,0,0,0,0,0,0,0,0,0,0,-1.6478,-1.6477,0,-1.6461,-1.6461,-1.6461,-1.6368,-1.6366,-1.6364,-1.6362,-1.6349,-1.6351,-1.6353,0,0,0,0,0,0,0,0,0,0,0,0,0,-1.6431,-1.6433,-1.6478,-1.6477,-1.6477,-1.6461,-1.6461,-1.6461,-1.6369,-1.6366,-1.6363,-1.6361,-1.6349,-1.6351,-1.6353,0,0,0,0,0,0,0,0,0,0,0,0,0,-1.6437,-1.6433,-1.6478,-1.6429,-1.6425,-1.6461,-1.6461,-1.6461,-1.6369,-1.6366,-1.6362,-1.6359,-1.6348,-1.635,-1.6353,-1.6437,0,0,-1.6361,-1.6362,0,0,0,0,0,0,0,0,-1.6437,-1.6439,-1.6436,-1.6433,-1.6428,-1.6413,-1.644,-1.6453,-1.637,-1.639,-1.6362,-1.6358,-1.6373,-1.6374,-1.6378,-1.6436,-1.6435,-1.6361,-1.6363,-1.6364,-1.6365,0,0,0,0,0,0,0,-1.6437,-1.6439,-1.6471,-1.6437,-1.6431,-1.6409,-1.6406,-1.6442,-1.6401,-1.6388,-1.6382,-1.6381,-1.637,-1.6376,-1.6377,-1.6435,-1.6361,-1.6364,-1.6365,-1.6366,-1.656,-1.6563,0,0,0,0,0,0,-1.6443,-1.6439,-1.6472,-1.6471,-1.6424,-1.6413,-1.6409,-1.6421,-1.64,-1.6394,-1.6384,-1.6376,-1.6373,-1.6374,-1.6377,-1.6473,-1.6364,-1.6366,-1.6368,-1.6556,-1.6561,-1.6565,0,0,0,0,0,0,-1.6442,-1.6446,-1.6472,-1.6453,-1.6455,-1.6417,-1.6431,-1.6423,-1.6428,-1.6397,-1.6389,-1.6397,-1.637,-1.6373,-1.6422,-1.6471,-1.6368,-1.637,-1.6552,-1.6558,-1.6563,-1.6667,0,0,0,0,0,0,-1.6441,-1.6447,-1.6478,-1.6455,-1.6456,-1.6518,-1.6434,-1.6425,-1.6432,-1.6423,-1.6407,-1.6401,-1.6368,-1.6418,-1.6425,-1.6473,-1.6372,-1.6548,-1.6555,-1.6561,-1.6659,-1.6675,-1.6689,0,0,0,0,0,-1.644,-1.6509,-1.648,-1.6484,-1.6494,-1.6521,-1.6522,-1.6481,-1.6437,-1.6468,-1.6447,-1.6402,-1.6464,-1.6424,-1.643,-1.648,-1.6544,-1.6553,-1.6561,-1.6652,-1.6672,-1.6689,0,0,0,0,0,0,-1.6541,-1.6505,-1.6472,-1.6536,-1.6532,-1.6505,-1.6543,-1.6503,-1.6513,-1.6504,-1.6454,-1.6451,-1.6508,-1.6499,-1.6455,-1.656,-1.6496,-1.6506,-1.6564,-1.6583,-1.6597,-1.6599,-1.6374,0,0,0,0,0,-1.657,-1.6594,-1.6561,-1.6621,-1.662,-1.6582,-1.6592,-1.6561,-1.6555,-1.6554,-1.6537,-1.6535,-1.6553,-1.6567,-1.6583,-1.6656,-1.6652,-1.6693,-1.6708,-1.6721,-1.6731,-1.6769,-1.6787,-1.6591,-1.6591,-1.6591,0,0,-1.6632,-1.6615,-1.6633,-1.664,-1.6634,-1.666,-1.6582,-1.6613,-1.6633,-1.6559,-1.6604,-1.6592,-1.6585,-1.6647,-1.6673,-1.6641,-1.6783,-1.6731,-1.6741,-1.6744,-1.6779,-1.6797,-1.6814,-1.6596,-1.6595,-1.6595,0,0,-1.6758,-1.6747,-1.6795,-1.6789,-1.6779,-1.6753,-1.6764,-1.6743,-1.6731,-1.6775,-1.672,-1.6743,-1.6777,-1.6774,-1.6778,-1.69,-1.6859,-1.6907,-1.6986,-1.7024,-1.704,-1.7053,-1.7098,-1.7114,-1.6916,-1.6916,-1.6916,0,-1.6836,-1.6873,-1.6825,-1.686,-1.6865,-1.6796,-1.6845,-1.6842,-1.6839,-1.6844,-1.6807,-1.6847,-1.6838,-1.6898,-1.6928,-1.6932,-1.6945,-1.691,-1.7041,-1.7054,-1.7066,-1.7108,-1.7125,-1.6922,-1.6922,-1.6921,-1.692,0,-1.697,-1.6996,-1.7036,-1.7032,-1.7041,-1.7083,-1.7042,-1.7057,-1.7024,-1.7002,-1.7048,-1.7034,-1.7046,-1.7057,-1.7026,-1.7113,-1.7093,-1.7049,-1.6985,-1.7091,-1.713,-1.7146,-1.6931,-1.6929,-1.6927,-1.6925,0,0,-1.7162,-1.7129,-1.7145,-1.7142,-1.7124,-1.7144,-1.7183,-1.7192,-1.7206,-1.7205,-1.7237,-1.7266,-1.7225,-1.7229,-1.7196,-1.7229,-1.7328,-1.7181,-1.718,-1.721,-1.7423,-1.7458,-1.7477,-1.7299,-1.7302,-1.7304,-1.7424,0,-1.7284,-1.7346,-1.7303,-1.7373,-1.7397,-1.7331,-1.7365,-1.7358,-1.7338,-1.7356,-1.7334,-1.7356,-1.7299,-1.7301,-1.7331,-1.731,-1.737,-1.73,-1.733,-1.7331,-1.7335,-1.7497,-1.7534,-1.7647,-1.7439,-1.7441,-1.7443,0,-1.7434,-1.7438,-1.751,-1.7487,-1.7495,-1.7526,-1.753,-1.7548,-1.7539,-1.7522,-1.7525,-1.7484,-1.7521,-1.7456,-1.7506,-1.746,-1.7469,-1.746,-1.7463,-1.7466,-1.7395,-1.7506,-1.7683,-1.7701,-1.7466,-1.7464,-1.7463,0,-1.7569,-1.7591,-1.7637,-1.7637,-1.761,-1.7633,-1.7624,-1.7611,-1.7619,-1.7624,-1.7628,-1.7638,-1.7643,-1.7651,-1.7614,-1.757,-1.767,-1.7602,-1.7658,-1.7659,-1.7684,-1.7683,-1.7866,-1.7687,-1.7687,-1.7687,-1.7686,0,-1.771,-1.7757,-1.7697,-1.7726,-1.7776,-1.7726,-1.7778,-1.7761,-1.775,-1.7775,-1.7719,-1.7744,-1.7692,-1.7712,-1.7682,-1.7729,-1.7732,-1.772,-1.7712,-1.7726,-1.7728,-1.7733,-1.7725,-1.7691,-1.769,-1.7689,-1.7688,0,-1.7869,-1.7831,-1.7877,-1.7847,-1.784,-1.7879,-1.7854,-1.788,-1.7855,-1.7887,-1.7891,-1.7853,-1.7873,-1.7836,-1.7852,-1.7832,-1.7897,-1.7876,-1.79,-1.7895,-1.7953,-1.7949,-1.8148,-1.8172,-1.7976,-1.7978,-1.798,0,-1.7963,-1.7997,-1.797,-1.7982,-1.7975,-1.7994,-1.8001,-1.7953,-1.7963,-1.7954,-1.7981,-1.7996,-1.8005,-1.8041,-1.8015,-1.8027,-1.8007,-1.8075,-1.8008,-1.8021,-1.8009,-1.8008,-1.8012,-1.809,-1.8092,-1.8094,-1.8096,0,-1.8133,-1.8112,-1.8124,-1.8129,-1.8138,-1.814,-1.8138,-1.8152,-1.81,-1.8114,-1.8133,-1.814,-1.8155,-1.8171,-1.8176,-1.8167,-1.8124,-1.8117,-1.8131,-1.8146,-1.8159,-1.8154,-1.794,-1.8113,-1.8111,-1.811,-1.8109,-1.8108,-1.8264,-1.8291,-1.8275,-1.829,-1.8283,-1.8282,-1.8304,-1.8281,-1.8295,-1.8302,-1.8272,-1.8298,-1.8287,-1.8289,-1.8285,-1.8305,-1.8274,-1.8294,-1.83,-1.8306,-1.8316,-1.8154,-1.8306,-1.8305,-1.8304,-1.8304,-1.8304,0,-1.8432,-1.8418,-1.8432,-1.843,-1.8442,-1.8396,-1.8392,-1.8405,-1.8428,-1.842,-1.843,-1.8452,-1.8466,-1.8441,-1.8451,-1.8472,-1.8453,-1.8477,-1.8476,-1.8475,-1.8342,-1.8329,-1.8493,-1.8492,-1.8492,-1.8492,-1.8492,-1.8492,-1.8521,-1.8565,-1.8541,-1.858,-1.8566,-1.859,-1.8591,-1.859,-1.8583,-1.8609,-1.862,-1.8603,-1.8588,-1.8597,-1.8609,-1.8601,-1.8608,-1.864,-1.8626,-1.8502,-1.8484,-1.8467,-1.8455,-1.8641,-1.8642,-1.8757,-1.8758,-1.8759]},{"header":{"parameterUnit":"m.s-1","parameterCategory":1,"la1":30.2991,"la2":30.254,"lo1":-89.0895,"lo2":-89.0444,"dy":0.0017,"dx":0.0017,"nx":28,"ny":28,"refTime":"2025-04-10T03:00:00:Z","depth":0,"parameterNumber":3,"parameterNumberName":"V-component_of_WINDS"},"data":[0,0,0,0,0,0,0,0,0,0,0,0,0,0,0,0,0,0,0,0,0,0,0,0,0,0,0,0,0,0,0,0,0,0,0,0,0,0,0,0,0,0,0,0,0,0,0,0,0,0,0,0,0,0,0,0,0,0,-3.3383,-3.3383,0,-3.3426,-3.3426,-3.3427,-3.3365,-3.3363,-3.3361,-3.3358,-3.3402,-3.3405,-3.3408,0,0,0,0,0,0,0,0,0,0,0,0,0,-3.3246,-3.3248,-3.3383,-3.3383,-3.3384,-3.3426,-3.3427,-3.3427,-3.3365,-3.3363,-3.336,-3.3357,-3.3401,-3.3405,-3.3409,0,0,0,0,0,0,0,0,0,0,0,0,0,-3.3299,-3.3249,-3.3383,-3.3358,-3.3356,-3.3426,-3.3427,-3.3427,-3.3366,-3.3363,-3.3359,-3.3356,-3.34,-3.3405,-3.3409,-3.3505,0,0,-3.3424,-3.3426,0,0,0,0,0,0,0,0,-3.3296,-3.3304,-3.3361,-3.336,-3.3358,-3.3387,-3.3394,-3.3453,-3.3367,-3.3362,-3.3358,-3.3355,-3.34,-3.3404,-3.342,-3.3507,-3.3509,-3.3424,-3.3427,-3.3429,-3.3431,0,0,0,0,0,0,0,-3.3292,-3.3302,-3.34,-3.3362,-3.336,-3.3344,-3.3348,-3.3405,-3.3399,-3.3362,-3.3358,-3.3364,-3.3398,-3.3415,-3.342,-3.3509,-3.3424,-3.3429,-3.3432,-3.3433,-3.3677,-3.368,0,0,0,0,0,0,-3.3292,-3.3299,-3.3398,-3.3401,-3.3318,-3.335,-3.3354,-3.3381,-3.3398,-3.3398,-3.3367,-3.3361,-3.3408,-3.3415,-3.3421,-3.3535,-3.3429,-3.3434,-3.3437,-3.3673,-3.3677,-3.3681,0,0,0,0,0,0,-3.3289,-3.3301,-3.3397,-3.3349,-3.336,-3.3356,-3.3386,-3.3383,-3.34,-3.3401,-3.34,-3.3385,-3.3406,-3.3415,-3.3484,-3.3536,-3.3436,-3.344,-3.3669,-3.3674,-3.3679,-3.3762,0,0,0,0,0,0,-3.3285,-3.33,-3.3337,-3.335,-3.3363,-3.346,-3.3389,-3.3387,-3.3409,-3.3402,-3.3418,-3.3418,-3.3404,-3.3478,-3.3489,-3.354,-3.3444,-3.3664,-3.3671,-3.3678,-3.3755,-3.377,-3.3783,0,0,0,0,0,-3.328,-3.3359,-3.3339,-3.3352,-3.3409,-3.3463,-3.347,-3.3453,-3.3413,-3.345,-3.345,-3.3417,-3.3527,-3.3485,-3.3498,-3.3551,-3.3661,-3.3669,-3.3677,-3.3749,-3.3767,-3.3782,0,0,0,0,0,0,-3.3352,-3.336,-3.3339,-3.3424,-3.3443,-3.3452,-3.3498,-3.3472,-3.3504,-3.3496,-3.3472,-3.3477,-3.3552,-3.3558,-3.3511,-3.3644,-3.3588,-3.3599,-3.3638,-3.3655,-3.3669,-3.3667,-3.3448,0,0,0,0,0,-3.3378,-3.3421,-3.3426,-3.35,-3.3511,-3.3503,-3.3526,-3.3511,-3.353,-3.3538,-3.3544,-3.3563,-3.3602,-3.3629,-3.3664,-3.3755,-3.3758,-3.3797,-3.3811,-3.3822,-3.3833,-3.3882,-3.3899,-3.3708,-3.3708,-3.3707,0,0,-3.3431,-3.3441,-3.347,-3.3515,-3.3528,-3.3574,-3.3511,-3.3562,-3.3595,-3.3546,-3.3613,-3.3617,-3.3637,-3.3718,-3.3754,-3.3726,-3.3886,-3.3833,-3.3842,-3.3846,-3.3892,-3.391,-3.3926,-3.3713,-3.3712,-3.3711,0,0,-3.3553,-3.3564,-3.3628,-3.3642,-3.3663,-3.3657,-3.3672,-3.3685,-3.3686,-3.3753,-3.3717,-3.3756,-3.3823,-3.3839,-3.3856,-3.3982,-3.3953,-3.3994,-3.4067,-3.4115,-3.413,-3.4143,-3.4189,-3.4206,-3.4004,-3.4004,-3.4004,0,-3.3617,-3.3685,-3.3663,-3.3717,-3.3738,-3.3695,-3.3759,-3.3773,-3.3805,-3.382,-3.3788,-3.3872,-3.3882,-3.3966,-3.3997,-3.4012,-3.4029,-3.3994,-3.4129,-3.4143,-3.4155,-3.4198,-3.4216,-3.4009,-3.4009,-3.4008,-3.4008,0,-3.3763,-3.381,-3.3859,-3.3891,-3.3917,-3.3976,-3.3963,-3.3991,-3.3973,-3.3971,-3.4038,-3.4049,-3.4087,-3.4105,-3.4088,-3.4187,-3.4168,-3.4133,-3.4076,-3.4178,-3.4219,-3.4236,-3.4016,-3.4015,-3.4013,-3.4012,0,0,-3.3933,-3.3951,-3.397,-3.3984,-3.4003,-3.4039,-3.4095,-3.4132,-3.4157,-3.4179,-3.4227,-3.4284,-3.4251,-3.427,-3.4254,-3.4296,-3.4396,-3.4255,-3.4255,-3.4282,-3.4507,-3.4535,-3.4555,-3.4376,-3.4379,-3.4381,-3.4505,0,-3.4055,-3.4154,-3.4135,-3.4231,-3.4275,-3.4233,-3.4282,-3.4298,-3.4297,-3.4333,-3.4331,-3.4373,-3.4325,-3.4337,-3.4376,-3.4376,-3.4441,-3.4366,-3.442,-3.4422,-3.4419,-3.4576,-3.4606,-3.4723,-3.4521,-3.4524,-3.4526,0,-3.4212,-3.4241,-3.4341,-3.4353,-3.437,-3.4415,-3.4447,-3.4482,-3.45,-3.4495,-3.4517,-3.4492,-3.4548,-3.4488,-3.4564,-3.4514,-3.4534,-3.4537,-3.4541,-3.4548,-3.4482,-3.4588,-3.4759,-3.4778,-3.455,-3.4548,-3.4547,0,-3.4328,-3.4391,-3.446,-3.4472,-3.4488,-3.452,-3.4528,-3.4542,-3.4565,-3.4592,-3.4607,-3.464,-3.4659,-3.4685,-3.467,-3.4628,-3.475,-3.4689,-3.4748,-3.4749,-3.4778,-3.4777,-3.4957,-3.4788,-3.4788,-3.4787,-3.4787,0,-3.4468,-3.4532,-3.4512,-3.4554,-3.4624,-3.4601,-3.467,-3.4673,-3.4686,-3.4727,-3.4692,-3.4732,-3.4709,-3.4747,-3.4735,-3.4801,-3.4809,-3.4807,-3.4804,-3.4812,-3.4812,-3.4827,-3.4819,-3.4792,-3.4791,-3.479,-3.4789,0,-3.4611,-3.46,-3.4672,-3.468,-3.4683,-3.4735,-3.4741,-3.478,-3.4775,-3.4828,-3.4839,-3.4831,-3.4874,-3.4861,-3.4907,-3.4899,-3.4983,-3.4967,-3.4977,-3.4974,-3.5035,-3.5031,-3.5233,-3.5259,-3.5071,-3.5073,-3.5074,0,-3.4702,-3.475,-3.4763,-3.4789,-3.4799,-3.484,-3.4864,-3.4842,-3.4868,-3.4891,-3.4928,-3.4967,-3.4998,-3.5068,-3.5066,-3.5101,-3.5087,-3.5156,-3.5093,-3.5099,-3.5091,-3.5089,-3.5094,-3.5169,-3.5172,-3.5173,-3.5175,0,-3.4866,-3.4858,-3.4893,-3.4927,-3.4955,-3.498,-3.5002,-3.5025,-3.5005,-3.5035,-3.5079,-3.5102,-3.5149,-3.5189,-3.522,-3.5227,-3.5199,-3.5194,-3.521,-3.522,-3.5225,-3.5225,-3.5014,-3.519,-3.5189,-3.5188,-3.5187,-3.5186,-3.4987,-3.5028,-3.5043,-3.5084,-3.5097,-3.5118,-3.5156,-3.5155,-3.5191,-3.5228,-3.5212,-3.5262,-3.5277,-3.5316,-3.5328,-3.5366,-3.534,-3.5363,-3.5369,-3.5376,-3.5384,-3.5216,-3.5371,-3.5371,-3.5371,-3.537,-3.537,0,-3.5151,-3.5158,-3.5195,-3.5227,-3.5259,-3.5227,-3.5249,-3.5278,-3.5322,-3.5339,-3.537,-3.5419,-3.5457,-3.5458,-3.5493,-3.5524,-3.5512,-3.5534,-3.5533,-3.5536,-3.5405,-3.5388,-3.5544,-3.5544,-3.5544,-3.5544,-3.5544,-3.5544,-3.524,-3.5307,-3.5301,-3.5375,-3.5381,-3.543,-3.5446,-3.5465,-3.5478,-3.5535,-3.5567,-3.5567,-3.5577,-3.5613,-3.5646,-3.5645,-3.5661,-3.5689,-3.5683,-3.5562,-3.5545,-3.5528,-3.5513,-3.5692,-3.5692,-3.5811,-3.5812,-3.5813]}]]